Location: Huntsville
(41.2590°N, 111.7678°W)
Time: 09:57:15
(UTC+00:00)

Courier 1B Rocket - Pass Details

Date: 22 June 2021
Orbit: 920 x 1202 km, 28.2° (Epoch: 29 July)

Event Time Altitude Azimuth Distance (km) Brightness Sun altitude
Rises 01:27:46 0° 229° (SW) 3,903 8.6 15.4°
Reaches altitude 10° 01:31:16 10° 215° (SW) 2,894 7.8 14.8°
Maximum altitude 01:36:24 22° 168° (SSE) 2,079 6.6 13.9°
Drops below altitude 10° 01:41:19 10° 120° (ESE) 2,745 6.8 13.0°
Sets 01:44:31 0° 106° (ESE) 3,651 7.3 12.5°
